Location: Newark
(43.9494°N, 6.8108°E)
Time: 22:27:21
(UTC+00:00)

A-11 Canister half - Pass Details

Date: 30 October 2019
Orbit: 1514 x 1685 km, 47.2° (Epoch: 21 November)

Event Time Altitude Azimuth Distance (km) Brightness Sun altitude
Rises 21:30:43 0° 211° (SSW) 4,926 - -52.4°
Reaches altitude 10° 21:34:06 10° 205° (SSW) 3,940 - -52.9°
Maximum altitude 21:43:25 43° 138° (SE) 2,200 - -54.0°
Drops below altitude 10° 21:52:36 10° 71° (ENE) 3,885 - -55.0°
Sets 21:55:52 0° 65° (ENE) 4,852 - -55.4°
